Simultaneous Nadir Overpasses (SNOs) Predictions

Prediction of SNOs between GOES-17 and NOAA-20 Satellite Orbit:

Table of predicted SNOs for the next 14.0 days since TLE Epoch: 8/3/2024
Index Date Time (GOES-17) GOES-17 Lat,Lon NOAA-20 Lat,Lon Distance(km) Time Diff (sec)
1 08/03/2024 20:23:06 0.04,-104.69 0.12,-104.39 34.96 80
2 08/06/2024 08:26:08 -0.04,-104.69 0.06,-105.13 49.68 80
3 08/07/2024 08:04:43 -0.04,-104.70 -0.97,-100.60 467.34 80
4 08/08/2024 20:26:39 0.04,-104.73 -0.22,-105.91 134.62 80
5 08/09/2024 20:10:35 0.04,-104.74 0.82,-101.39 382.70 80
6 08/11/2024 08:32:21 -0.05,-104.74 0.39,-106.65 218.28 80
7 08/12/2024 08:10:57 -0.05,-104.74 -0.65,-102.12 298.67 80
8 08/13/2024 20:32:53 0.06,-104.76 -0.53,-107.43 304.07 80
9 08/14/2024 20:16:48 0.06,-104.77 0.46,-102.90 212.83 80
10 08/16/2024 08:38:35 -0.07,-104.76 0.68,-108.17 388.51 80
